Date String (YYYY-MM-DD hh:mm:ss) UTC,Instrument flags,Ambient pressure (hPa),Sample flow (lpm),Bypass flow (lpm),Sample temperature (°C),Ambient temperature (°C),ASC tube jacket temperature (°C),LED temperature (°C),Box temperature (°C),Sample RH (%),Span deviation,Mass concentration (μg/m³),Mass concentration (μg/m³),Mass concentration (μg/m³)
DateTimeUTC,F1_M11,P_M11,Q1_M11,Q2_M11,T1_M11,T2_M11,T3_M11,T4_M11,T5_M11,U1_M11,ZSPAN_M11,X0_M11,X2_M11,X1_M11
2022-03-11 13:00:00,,0826.6,5.01,0.00,22.4,23.1,00.0,31.3,24.3,05.8,-000.7,0016.21,0011.39,0010.94
2022-03-11 13:01:00,,0826.6,4.99,0.00,22.4,22.8,00.0,31.3,24.3,05.8,-000.9,0015.86,0011.36,0010.92
2022-03-11 13:02:00,,0826.6,4.99,0.00,22.4,22.3,00.0,31.3,24.1,05.7,-001.0,0015.84,0011.31,0010.85
2022-03-11 13:03:00,,0826.7,5.00,0.00,22.3,21.8,00.0,31.3,24.0,05.7,-000.8,0015.80,0011.28,0010.81
2022-03-11 13:04:00,,0826.7,5.00,0.00,22.2,21.4,00.0,31.2,23.8,05.7,-000.6,0015.82,0011.28,0010.80
2022-03-11 13:05:00,,0826.6,5.00,0.00,22.2,21.1,00.0,31.2,23.7,05.8,-000.4,0015.69,0011.25,0010.79
2022-03-11 13:06:00,,0826.7,5.01,0.00,22.1,21.0,00.0,31.2,23.7,05.8,-000.1,0015.72,0011.26,0010.79
2022-03-11 13:07:00,,0826.6,4.99,0.00,22.1,20.9,00.0,31.2,23.6,05.8,0000.3,0015.88,0011.26,0010.79
2022-03-11 13:08:00,,0826.7,5.01,0.00,22.1,21.4,00.0,31.2,23.7,05.8,0000.3,0016.15,0011.24,0010.77
2022-03-11 13:09:00,,0826.7,5.00,0.00,22.2,22.3,00.0,31.2,23.9,05.7,0000.4,0015.93,0011.21,0010.73
2022-03-11 13:10:00,,0826.7,5.01,0.00,22.3,23.0,00.0,31.2,24.2,05.6,0000.6,0015.54,0011.25,0010.73
2022-03-11 13:11:00,,0826.7,5.01,0.00,22.4,22.9,00.0,31.3,24.3,05.6,0000.7,0015.74,0011.27,0010.77
2022-03-11 13:12:00,,0826.7,4.99,0.00,22.4,22.5,00.0,31.3,24.2,05.6,0000.6,0015.89,0011.31,0010.81
2022-03-11 13:13:00,,0826.7,4.99,0.00,22.4,22.2,00.0,31.3,24.1,05.6,0000.5,0016.70,0011.39,0010.89
2022-03-11 13:14:00,,0826.7,5.00,0.00,22.3,21.9,00.0,31.3,24.0,05.6,0000.4,0016.83,0011.43,0010.94
2022-03-11 13:15:00,,0826.7,5.00,0.00,22.3,21.7,00.0,31.3,24.0,05.6,0000.1,0016.78,0011.43,0010.95
2022-03-11 13:16:00,,0826.7,5.01,0.00,22.2,21.5,00.0,31.2,23.9,05.6,0000.1,0016.89,0011.47,0010.95
2022-03-11 13:17:00,,0826.7,5.00,0.00,22.2,21.4,00.0,31.2,23.8,05.6,0000.0,0016.95,0011.49,0010.94
2022-03-11 13:18:00,,0826.7,5.00,0.00,22.1,21.3,00.0,31.2,23.7,05.6,-000.2,0016.64,0011.45,0010.93
2022-03-11 13:19:00,,0826.7,4.99,0.00,22.2,21.8,00.0,31.2,23.8,05.6,-000.0,0016.31,0011.43,0010.93
2022-03-11 13:20:00,,0826.7,5.01,0.00,22.3,22.5,00.0,31.3,24.1,05.5,-000.0,0016.36,0011.45,0010.92
2022-03-11 13:21:00,,0826.7,5.01,0.00,22.4,23.0,00.0,31.3,24.3,05.5,-000.1,0016.20,0011.38,0010.89
2022-03-11 13:22:00,,0826.7,5.00,0.00,22.5,22.7,00.0,31.3,24.3,05.5,-000.4,0016.23,0011.35,0010.83
2022-03-11 13:23:00,,0826.7,5.00,0.00,22.4,22.4,00.0,31.3,24.2,05.5,-000.2,0016.14,0011.34,0010.82
2022-03-11 13:24:00,,0826.7,5.00,0.00,22.4,22.1,00.0,31.3,24.1,05.5,-000.0,0015.44,0011.29,0010.79
2022-03-11 13:25:00,,0826.7,5.00,0.00,22.3,21.9,00.0,31.3,24.0,05.6,0000.1,0015.23,0011.26,0010.78
2022-03-11 13:26:00,,0826.8,5.01,0.00,22.3,21.7,00.0,31.3,23.9,05.6,-000.1,0016.08,0011.27,0010.76
2022-03-11 13:27:00,,0826.8,5.00,0.00,22.2,21.5,00.0,31.3,23.9,05.6,-000.4,0016.42,0011.22,0010.73
2022-03-11 13:28:00,,0826.8,5.00,0.00,22.2,21.4,00.0,31.3,23.8,05.7,-000.2,0016.34,0011.17,0010.69
2022-03-11 13:29:00,,0826.8,4.99,0.00,22.2,21.9,00.0,31.3,23.9,05.7,0000.1,0016.50,0011.13,0010.66
2022-03-11 13:30:00,,0826.8,5.00,0.00,22.3,22.6,00.0,31.3,24.1,05.7,0000.3,0016.67,0011.12,0010.63
2022-03-11 13:31:00,,0826.8,5.01,0.00,22.5,23.1,00.0,31.3,24.3,05.6,0000.4,0016.62,0011.07,0010.60
2022-03-11 13:32:00,,0826.8,5.00,0.00,22.5,22.9,00.0,31.3,24.3,05.6,0000.4,0016.54,0011.03,0010.57
2022-03-11 13:33:00,,0826.8,5.00,0.00,22.5,22.6,00.0,31.3,24.2,05.7,0000.8,0016.29,0010.98,0010.55
2022-03-11 13:34:00,,0826.8,5.01,0.00,22.5,22.3,00.0,31.4,24.2,05.7,0000.8,0016.29,0010.97,0010.53
2022-03-11 13:35:00,,0826.8,4.99,0.00,22.4,22.1,00.0,31.3,24.0,05.7,0001.0,0016.32,0010.94,0010.51
2022-03-11 13:36:00,,0826.8,5.01,0.00,22.3,21.8,00.0,31.3,24.0,05.7,0001.2,0016.20,0010.90,0010.47
2022-03-11 13:37:00,,0826.8,5.00,0.00,22.3,21.6,00.0,31.3,23.9,05.8,0001.4,0015.40,0010.87,0010.46
2022-03-11 13:38:00,,0826.8,5.00,0.00,22.2,21.6,00.0,31.3,23.8,05.9,0001.6,0014.98,0010.89,0010.47
2022-03-11 13:39:00,,0826.8,4.99,0.00,22.3,22.3,00.0,31.3,24.0,05.8,0001.8,0015.00,0010.90,0010.48
2022-03-11 13:40:00,,0826.8,5.00,0.00,22.5,23.1,00.0,31.4,24.3,05.8,0001.9,0014.73,0010.87,0010.47
2022-03-11 13:41:00,,0826.8,5.01,0.00,22.6,23.3,00.0,31.4,24.5,05.8,0002.1,0014.59,0010.86,0010.46
2022-03-11 13:42:00,,0826.8,5.00,0.00,22.6,23.0,00.0,31.4,24.4,05.9,0002.2,0014.62,0010.88,0010.49
2022-03-11 13:43:00,,0826.7,4.99,0.00,22.6,22.7,00.0,31.4,24.3,05.9,0002.1,0014.76,0010.97,0010.56
2022-03-11 13:44:00,,0826.8,4.99,0.00,22.5,22.4,00.0,31.4,24.2,06.0,0002.3,0014.90,0011.07,0010.66
2022-03-11 13:45:00,,0826.7,5.01,0.00,22.5,22.1,00.0,31.4,24.1,06.0,0002.5,0014.91,0011.10,0010.68
2022-03-11 13:46:00,,0826.8,5.00,0.00,22.4,21.9,00.0,31.4,24.0,06.0,0002.1,0014.80,0011.08,0010.68
2022-03-11 13:47:00,,0826.8,5.01,0.00,22.3,21.7,00.0,31.4,23.9,06.1,0001.7,0014.98,0011.11,0010.69
2022-03-11 13:48:00,,0826.8,5.00,0.00,22.3,21.5,00.0,31.4,23.9,06.1,0001.5,0014.93,0011.08,0010.69
2022-03-11 13:49:00,,0826.8,5.00,0.00,22.3,21.8,00.0,31.4,23.9,06.1,0001.5,0014.90,0011.09,0010.72
2022-03-11 13:50:00,,0826.9,5.00,0.00,22.4,22.6,00.0,31.4,24.1,06.1,0001.2,0014.97,0011.14,0010.76
2022-03-11 13:51:00,,0827.1,4.98,0.00,22.5,23.4,00.0,31.4,24.4,06.1,0001.2,0015.07,0011.19,0010.79
2022-03-11 13:52:00,,0826.7,5.01,0.00,22.6,23.3,00.0,31.5,24.5,06.0,0001.2,0015.06,0011.19,0010.79
2022-03-11 13:53:00,,0826.8,5.00,0.00,22.6,23.0,00.0,31.5,24.4,06.0,0001.2,0015.09,0011.21,0010.82
2022-03-11 13:54:00,,0826.8,4.99,0.00,22.6,22.6,00.0,31.5,24.3,06.0,0001.0,0015.04,0011.16,0010.76
2022-03-11 13:55:00,,0826.8,5.01,0.00,22.5,22.3,00.0,31.5,24.2,05.9,0000.3,0014.80,0011.04,0010.65
2022-03-11 13:56:00,,0826.8,5.00,0.00,22.5,22.1,00.0,31.5,24.1,06.0,0000.3,0014.79,0011.04,0010.65
2022-03-11 13:57:00,,0826.8,5.00,0.00,22.4,21.8,00.0,31.4,24.0,06.1,0000.3,0015.00,0011.11,0010.70
2022-03-11 13:58:00,,0826.8,5.00,0.00,22.3,21.7,00.0,31.4,23.9,06.1,0000.4,0014.83,0011.09,0010.69
2022-03-11 13:59:00,,0826.8,5.00,0.00,22.3,21.6,00.0,31.4,23.9,06.2,0000.8,0014.81,0011.07,0010.66
